The 98 - 220 metre wide asteroid 2008 UB95 will make a close pass (64.1 lunar distances, 0.1648 AU), travelling at 5.60 km/second, to the Earth-Moon system on the 31st October, 2010 @ 22:27 UT.
Orbital elements: 2008 UB95 Earth MOID = 0.0004 AU Epoch 2010 Jan. 4.0 TT = JDT 2455200.5 MPC M 160.86171 (2000.0) P Q n 1.00083081 Peri. 253.49663 +0.09669149 +0.99508767 a 0.9898338 Node 22.08520 -0.89028083 +0.09601123 e 0.2686170 Incl. 3.23896 -0.44502899 +0.02413226 P 0.98 H 24.7 G 0.15 U 5
The 30 - 68 metre wide asteroid 2008 UB95 will make a close pass (31.0 Lunar Distances, 0.0798 AU), travelling at 6.43 km/s, to the Earth-Moon system on the 15th October, 2009.
Orbital elements: 2008 UB95 Earth MOID = 0.0006 AU Epoch 2008 Nov. 30.0 TT = JDT 2454800.5 MPC M 120.55416 (2000.0) P Q n 0.99909147 Peri. 253.80032 +0.10118076 +0.99464395 a 0.9909823 Node 22.03973 -0.88993183 +0.09997585 e 0.2673998 Incl. 3.22576 -0.44472890 +0.02623426 P 0.99 H 24.5 G 0.15 U 9